| time (UTC) | temp F | wind direction | speed MPH | gust MPH | rain 1hr in | rain 24hr in | rain mn in | humidity % | barometer mb |
| 20260901130435 | 74 | 136 | 0.0 | 2.0 | 0.00 | 0.00 | 0.00 | 64 | 1013.9 |
| 20260901124935 | 73 | 160 | 0.0 | 1.0 | 0.00 | 0.00 | 0.00 | 65 | 1013.8 |
| 20260901123433 | 72 | 163 | 0.0 | 1.0 | 0.00 | 0.00 | 0.00 | 66 | 1013.7 |
| 20260901121932 | 72 | 163 | 0.0 | 0.0 | 0.00 | 0.00 | 0.00 | 67 | 1013.6 |
| 20260901114930 | 71 | 136 | 0.0 | 0.0 | 0.00 | 0.00 | 0.00 | 68 | 1013.2 |
| 20260901113429 | 70 | 231 | 0.0 | 0.0 | 0.00 | 0.00 | 0.00 | 70 | 1013.2 |
| 20260901111929 | 70 | 164 | 0.0 | 0.0 | 0.00 | 0.00 | 0.00 | 72 | 1013.3 |
| 20260901110428 | 70 | 218 | 0.0 | 0.0 | 0.00 | 0.00 | 0.00 | 70 | 1013.3 |
| 20260901103426 | 69 | 158 | 0.0 | 0.0 | 0.00 | 0.00 | 0.00 | 71 | 1013.2 |
| 20260901100424 | 71 | 158 | 0.0 | 0.0 | 0.00 | 0.00 | 0.00 | 69 | 1013.0 |
| 20260901093422 | 72 | 158 | 0.0 | 0.0 | 0.00 | 0.00 | 0.00 | 67 | 1012.7 |
| 20260901091921 | 73 | 158 | 0.0 | 0.0 | 0.00 | 0.00 | 0.00 | 64 | 1012.6 |
| 20260901090420 | 74 | 181 | 0.0 | 0.0 | 0.00 | 0.00 | 0.00 | 62 | 1012.4 |
| 20260901084919 | 74 | 180 | 0.0 | 0.0 | 0.00 | 0.00 | 0.00 | 61 | 1012.3 |
| 20260901083418 | 75 | 160 | 0.0 | 0.0 | 0.00 | 0.00 | 0.00 | 60 | 1012.2 |
| 20260901081917 | 76 | 143 | 0.0 | 0.0 | 0.00 | 0.00 | 0.00 | 58 | 1012.0 |
| 20260901080416 | 76 | 200 | 0.0 | 0.0 | 0.00 | 0.00 | 0.00 | 58 | 1012.0 |
| 20260901073414 | 78 | 225 | 0.0 | 1.0 | 0.00 | 0.00 | 0.00 | 55 | 1012.1 |
| 20260901071913 | 79 | 146 | 0.0 | 1.0 | 0.00 | 0.00 | 0.00 | 53 | 1012.0 |
| 20260901070412 | 80 | 163 | 0.0 | 1.0 | 0.00 | 0.00 | 0.00 | 52 | 1012.0 |
| 20260901063410 | 81 | 151 | 0.0 | 0.0 | 0.00 | 0.00 | 0.00 | 51 | 1012.0 |
| 20260901061909 | 81 | 146 | 0.0 | 1.0 | 0.00 | 0.00 | 0.00 | 51 | 1012.1 |
| 20260901060409 | 82 | 181 | 0.0 | 5.0 | 0.00 | 0.00 | 0.00 | 50 | 1012.1 |
| 20260901053407 | 83 | 140 | 0.0 | 2.0 | 0.00 | 0.00 | 0.00 | 49 | 1012.0 |
| 20260901051906 | 83 | 169 | 0.0 | 5.0 | 0.00 | 0.00 | 0.00 | 49 | 1012.0 |
| 20260901050405 | 84 | 160 | 0.0 | 1.0 | 0.00 | 0.00 | 0.00 | 48 | 1011.9 |
| 20260901044903 | 84 | 147 | 0.0 | 3.0 | 0.00 | 0.00 | 0.00 | 48 | 1011.8 |
| 20260901043403 | 85 | 167 | 0.0 | 2.0 | 0.00 | 0.00 | 0.00 | 47 | 1011.8 |
| 20260901041902 | 86 | 165 | 0.0 | 3.0 | 0.00 | 0.00 | 0.00 | 46 | 1011.8 |
| 20260901033359 | 87 | 140 | 0.0 | 6.0 | 0.00 | 0.00 | 0.00 | 44 | 1011.3 |
| 20260901031858 | 88 | 146 | 0.0 | 6.0 | 0.00 | 0.00 | 0.00 | 44 | 1011.1 |
| 20260901030357 | 88 | 138 | 0.0 | 6.0 | 0.00 | 0.00 | 0.00 | 44 | 1010.9 |
| 20260901024856 | 89 | 145 | 0.0 | 6.0 | 0.00 | 0.00 | 0.00 | 43 | 1010.6 |
| 20260901023355 | 89 | 151 | 0.0 | 6.0 | 0.00 | 0.00 | 0.00 | 43 | 1010.5 |
| 20260901021854 | 90 | 152 | 0.0 | 6.0 | 0.00 | 0.00 | 0.00 | 42 | 1010.1 |
| 20260901020353 | 90 | 176 | 0.0 | 6.0 | 0.00 | 0.00 | 0.00 | 41 | 1009.8 |
| 20260901014853 | 91 | 125 | 0.0 | 4.0 | 0.00 | 0.00 | 0.00 | 40 | 1009.7 |
| 20260901011850 | 93 | 146 | 0.0 | 5.0 | 0.00 | 0.00 | 0.00 | 37 | 1009.5 |
| 20260901010349 | 94 | 166 | 2.0 | 6.0 | 0.00 | 0.00 | 0.00 | 35 | 1009.3 |
| 20260901004848 | 95 | 143 | 0.0 | 6.0 | 0.00 | 0.00 | 0.00 | 34 | 1009.2 |
| 20260901003347 | 96 | 132 | 0.0 | 6.0 | 0.00 | 0.00 | 0.00 | 33 | 1009.2 |
| 20260901001846 | 97 | 125 | 0.0 | 6.0 | 0.00 | 0.00 | 0.00 | 32 | 1009.1 |
| 20260901000345 | 98 | 198 | 4.0 | 7.0 | 0.00 | 0.00 | 0.00 | 31 | 1009.1 |
| 20260831234844 | 98 | 166 | 0.0 | 6.0 | 0.00 | 0.00 | 0.00 | 30 | 1009.1 |
| 20260831233343 | 100 | 131 | 5.0 | 6.0 | 0.00 | 0.00 | 0.00 | 29 | 1009.1 |
| 20260831231842 | 101 | 145 | 0.0 | 7.0 | 0.00 | 0.00 | 0.00 | 29 | 1009.0 |
| 20260831230341 | 101 | 188 | 1.0 | 10.0 | 0.00 | 0.00 | 0.00 | 28 | 1009.0 |
| 20260831224840 | 102 | 139 | 5.0 | 7.0 | 0.00 | 0.00 | 0.00 | 28 | 1009.1 |
| 20260831223340 | 102 | 137 | 0.0 | 8.0 | 0.00 | 0.00 | 0.00 | 28 | 1009.1 |
| 20260831221838 | 102 | 139 | 5.0 | 7.0 | 0.00 | 0.00 | 0.00 | 28 | 1009.2 |
| 20260831220338 | 102 | 179 | 5.0 | 7.0 | 0.00 | 0.00 | 0.00 | 27 | 1009.3 |
| 20260831214837 | 104 | 228 | 0.0 | 6.0 | 0.00 | 0.00 | 0.00 | 26 | 1009.4 |
| 20260831213336 | 103 | 179 | 0.0 | 6.0 | 0.00 | 0.00 | 0.00 | 24 | 1009.6 |
| 20260831211835 | 102 | 236 | 0.0 | 12.0 | 0.00 | 0.00 | 0.00 | 24 | 1009.8 |
| 20260831210334 | 103 | 160 | 2.0 | 6.0 | 0.00 | 0.00 | 0.00 | 25 | 1009.9 |
| 20260831204833 | 103 | 198 | 5.0 | 6.0 | 0.00 | 0.00 | 0.00 | 25 | 1010.0 |
| 20260831203332 | 103 | 224 | 5.0 | 12.0 | 0.00 | 0.00 | 0.00 | 25 | 1010.2 |
| 20260831201831 | 102 | 134 | 0.0 | 15.0 | 0.00 | 0.00 | 0.00 | 27 | 1010.2 |
| 20260831194829 | 102 | 159 | 2.0 | 13.0 | 0.00 | 0.00 | 0.00 | 28 | 1010.5 |
| 20260831191827 | 103 | 230 | 0.0 | 12.0 | 0.00 | 0.00 | 0.00 | 28 | 1010.6 |
| 20260831190326 | 102 | 235 | 0.0 | 11.0 | 0.00 | 0.00 | 0.00 | 31 | 1010.6 |
| 20260831184825 | 102 | 212 | 1.0 | 8.0 | 0.00 | 0.00 | 0.00 | 31 | 1010.8 |
| 20260831183324 | 102 | 129 | 5.0 | 8.0 | 0.00 | 0.00 | 0.00 | 31 | 1010.8 |
| 20260831180322 | 100 | 232 | 0.0 | 12.0 | 0.00 | 0.00 | 0.00 | 33 | 1011.2 |
| 20260831174821 | 99 | 259 | 0.0 | 10.0 | 0.00 | 0.00 | 0.00 | 34 | 1011.4 |
| 20260831173320 | 98 | 188 | 0.0 | 6.0 | 0.00 | 0.00 | 0.00 | 36 | 1011.6 |
| 20260831171819 | 98 | 132 | 0.0 | 6.0 | 0.00 | 0.00 | 0.00 | 37 | 1011.7 |
| 20260831170319 | 97 | 136 | 4.0 | 7.0 | 0.00 | 0.00 | 0.00 | 38 | 1012.0 |
| 20260831164818 | 96 | 239 | 0.0 | 6.0 | 0.00 | 0.00 | 0.00 | 38 | 1011.9 |
| 20260831163316 | 95 | 250 | 3.0 | 7.0 | 0.00 | 0.00 | 0.00 | 40 | 1012.0 |
| 20260831160315 | 93 | 205 | 0.0 | 6.0 | 0.00 | 0.00 | 0.00 | 41 | 1012.4 |
| 20260831154814 | 92 | 188 | 0.0 | 7.0 | 0.00 | 0.00 | 0.00 | 43 | 1012.4 |
| 20260831153313 | 91 | 184 | 0.0 | 5.0 | 0.00 | 0.00 | 0.00 | 44 | 1012.2 |
| 20260831151812 | 90 | 243 | 0.0 | 6.0 | 0.00 | 0.00 | 0.00 | 46 | 1012.3 |
| 20260831150311 | 88 | 225 | 0.0 | 4.0 | 0.00 | 0.00 | 0.00 | 49 | 1012.5 |
| 20260831143309 | 84 | 134 | 4.0 | 5.0 | 0.00 | 0.00 | 0.00 | 52 | 1012.6 |
| 20260831141808 | 83 | 230 | 0.0 | 1.0 | 0.00 | 0.00 | 0.00 | 54 | 1012.9 |
| 20260831140307 | 82 | 249 | 0.0 | 4.0 | 0.00 | 0.00 | 0.00 | 55 | 1012.7 |
| 20260831134806 | 80 | 160 | 0.0 | 4.0 | 0.00 | 0.00 | 0.00 | 57 | 1012.7 |
| 20260831133305 | 78 | 136 | 0.0 | 5.0 | 0.00 | 0.00 | 0.00 | 59 | 1012.6 |
| 20260831131804 | 77 | 186 | 0.0 | 1.0 | 0.00 | 0.00 | 0.00 | 61 | 1012.4 |